Wind_Speed
4 4 4 5 5 6 6 6 6 6 6 6 8 8 7 6 2 8 3 6 5 6 3 2 4 5 6 9 9 13 14 8 17 15 12 11 13 17 20 21 21 21 22 18 14
3 4 4 4 4 5 5 5 5 5 5 6 7 6 5 1 7 6 4 8 8 5 2 5 6 5 12 5 4 11 5 16 7 10 11 14 16 13 17 17 18 21 19 15 12
3 3 3 4 4 5 4 5 4 5 4 5 5 5 2 6 5 5 4 8 8 5 4 5 4 9 8 7 3 8 11 9 9 13 14 14 14 13 15 12 13 14 16 17 16
3 3 3 3 3 4 4 4 4 4 4 4 4 2 2 4 0 2 6 10 7 3 4 4 6 14 7 6 7 14 10 9 12 5 9 16 17 25 26 14 15 16 16 14 14
4 3 3 2 2 3 3 3 3 3 3 2 2 2 5 9 9 4 9 9 5 1 3 4 4 4 4 9 12 11 12 15 15 16 18 19 19 16 20 17 14 14 15 16 16
3 3 2 2 2 3 3 4 3 3 2 1 1 1 3 12 5 5 7 6 4 3 3 4 5 7 4 1 6 10 11 14 12 16 15 16 14 6 11 13 13 15 16 15 16
3 3 3 3 3 2 1 2 1 1 1 3 1 1 6 4 4 6 9 6 5 4 6 2 4 10 3 8 12 17 13 13 17 12 17 19 13 10 10 13 14 14 15 16 14
2 3 3 3 3 2 2 2 3 4 4 2 3 4 2 0 5 9 10 8 6 5 5 5 4 5 7 8 12 15 13 10 13 11 6 7 10 12 11 13 14 13 14 15 14
2 1 3 2 2 2 3 5 5 4 2 2 2 3 6 3 4 10 11 8 7 7 7 6 7 9 5 14 12 8 8 7 10 2 2 4 10 8 10 9 16 15 16 14 14
1 2 3 3 4 3 5 4 4 2 1 2 2 7 6 6 7 9 10 8 8 7 10 8 12 11 13 14 2 11 11 5 10 9 5 6 9 10 8 9 12 16 13 12 12
1 2 3 4 7 7 6 1 3 3 7 10 3 2 8 7 7 7 9 8 10 10 15 18 11 6 8 12 8 7 10 5 5 5 4 5 7 8 9 12 13 8 9 8 9
4 3 3 3 4 7 6 3 6 4 7 4 4 2 4 4 9 7 6 9 10 14 6 11 8 7 6 7 5 6 8 14 7 3 5 8 8 6 8 9 16 9 8 11 13
5 6 4 4 1 0 1 2 5 4 7 9 6 5 7 4 4 8 7 10 11 8 10 7 13 3 3 3 10 10 16 14 10 3 11 3 14 14 11 11 11 9 8 7 9
5 8 7 5 4 3 3 4 5 4 5 9 11 5 8 3 5 2 1 6 5 6 5 6 5 3 7 4 9 6 7 9 9 9 13 19 12 18 14 10 8 5 7 5 9
5 7 9 11 2 4 2 5 4 4 3 11 10 8 4 7 12 7 1 7 6 4 6 5 6 3 1 9 10 10 12 14 16 14 17 8 5 7 13 8 7 6 7 6 9
6 8 8 8 9 4 4 7 5 8 4 9 7 11 12 7 2 6 5 2 3 4 8 8 4 5 8 4 4 7 13 17 16 8 6 8 8 14 10 12 5 12 10 10 9
7 8 10 10 3 5 6 7 8 5 6 8 11 9 10 6 3 5 4 2 5 4 9 5 6 6 7 13 3 9 15 12 13 7 9 12 2 8 13 16 12 15 12 10 5
8 8 6 4 5 7 6 10 7 3 2 4 2 7 6 5 5 2 4 7 5 11 6 9 5 8 5 7 10 19 8 8 14 15 15 12 6 5 9 11 14 13 8 5 2
9 5 3 3 4 4 11 10 3 6 2 5 8 11 8 9 5 7 4 10 6 9 11 6 6 4 4 7 8 13 12 16 11 19 14 8 11 10 9 7 4 4 5 0 2
4 6 2 3 4 5 9 6 5 3 3 6 7 8 3 5 8 4 4 5 3 7 7 6 12 4 7 7 2 13 9 10 8 7 9 17 10 7 10 6 4 2 2 5 2
3 6 2 2 4 10 8 6 7 4 2 4 2 1 4 2 9 4 7 8 7 6 7 11 6 1 9 8 11 12 8 6 4 7 8 9 7 9 9 11 9 7 5 11 10
4 4 2 2 10 8 2 4 1 7 7 5 8 8 7 6 6 4 9 10 7 7 4 7 6 8 6 7 4 4 8 6 8 7 7 11 5 4 10 14 9 7 8 9 10
5 4 1 2 4 6 6 7 4 6 6 3 3 6 4 3 3 2 6 7 7 8 8 7 3 9 7 7 2 6 7 8 4 7 5 10 6 8 9 4 11 12 12 10 12
5 3 4 1 3 1 10 9 8 7 7 8 3 1 2 1 1 2 8 4 9 11 6 3 3 5 8 8 4 4 6 9 7 7 11 6 6 7 6 10 7 9 9 9 12
3 4 4 3 4 3 2 5 9 6 4 2 2 4 4 2 2 3 5 8 7 3 6 6 1 1 5 4 4 3 6 7 10 8 6 10 11 9 10 11 10 10 7 12 11
5 4 2 6 2 4 1 1 6 3 5 5 3 3 5 7 8 10 5 2 4 5 4 2 2 7 6 3 1 1 3 5 6 6 8 10 6 5 6 8 9 6 11 12 14
5 4 5 3 3 6 5 2 5 7 7 7 3 1 8 7 7 6 4 4 5 6 5 4 1 6 8 3 6 2 9 10 10 9 9 10 10 9 5 2 6 6 4 8 11
Wind_Direction
291 286 279 276 274 274 275 275 269 270 273 288 299 312 319 326 112 135 142 163 186 190 182 211 246 245 243 251 253 267 276 85 33 50 100 134 80 68 70 72 63 63 87 118 121
308 295 294 285 287 283 275 268 265 266 281 292 303 320 334 87 148 212 237 192 184 182 207 246 234 217 217 217 254 294 33 60 15 53 65 49 107 130 110 91 74 79 87 98 107
325 312 300 292 290 280 270 262 266 269 282 294 312 332 346 184 270 93 210 186 177 182 288 287 258 236 213 216 23 20 32 58 88 78 84 75 64 47 101 54 64 82 70 76 86
11 356 328 317 288 271 259 264 268 274 284 298 323 351 200 212 51 99 154 156 152 183 292 266 212 229 175 117 137 84 53 91 94 71 84 76 80 58 64 80 82 82 84 91 102
31 23 7 346 312 276 278 271 265 276 281 304 336 12 176 242 84 131 150 146 137 252 298 308 304 275 149 124 109 101 93 95 90 82 79 84 72 83 78 83 87 90 88 85 82
26 19 1 330 295 285 279 270 270 266 258 303 96 289 245 254 118 147 161 158 188 256 280 314 24 352 50 151 300 125 124 120 121 110 100 96 87 85 95 98 90 85 85 87 90
25 46 60 60 57 42 333 264 239 225 166 140 114 122 265 77 163 181 178 182 213 239 295 7 329 282 101 106 135 145 146 155 143 140 137 123 78 91 107 104 93 91 94 83 83
58 84 72 54 53 53 57 89 114 129 137 144 142 181 335 114 200 195 188 200 209 248 277 299 283 281 234 131 174 200 191 148 137 154 146 236 108 128 140 129 118 112 98 91 86
96 77 63 40 42 70 113 112 117 123 160 135 125 229 123 137 149 170 182 195 208 234 262 281 220 224 170 191 200 306 197 190 104 119 313 303 110 157 162 154 123 118 101 97 91
121 93 80 57 46 89 123 130 119 127 149 142 266 251 187 92 124 161 187 207 224 234 237 225 209 201 224 224 174 180 259 67 36 63 53 63 112 135 161 115 117 113 110 99 94
149 140 100 83 67 70 140 146 197 205 220 296 80 90 110 113 140 184 193 218 237 237 248 202 211 227 32 27 356 7 350 26 105 104 298 110 143 145 140 125 135 128 115 124 116
210 189 133 118 86 68 63 273 23 357 237 203 156 141 130 153 150 156 192 226 198 230 233 222 92 61 33 13 320 302 301 10 134 158 262 170 156 171 144 157 122 132 129 158 131
203 210 179 155 144 258 4 21 344 308 248 164 162 154 140 247 92 125 230 208 218 189 224 32 94 90 295 249 326 69 335 358 349 325 241 227 198 192 158 142 136 143 145 121 142
196 208 208 186 222 188 191 329 331 277 220 144 178 137 176 176 101 69 313 304 275 96 87 81 108 259 260 48 343 352 328 319 291 268 294 208 291 164 169 155 159 138 121 127 103
198 194 205 212 230 245 250 315 309 285 188 179 147 142 191 237 139 134 101 240 280 135 269 45 176 253 277 16 337 5 332 309 298 268 296 40 61 128 111 154 184 129 106 118 86
191 184 187 203 232 254 283 300 309 238 108 156 158 202 198 171 199 129 158 311 337 279 340 103 39 5 9 284 322 308 281 271 256 269 255 149 247 51 41 36 121 113 113 95 82
174 174 180 177 237 256 281 271 239 275 148 149 177 202 170 131 157 182 151 218 316 194 3 228 148 110 330 311 212 290 334 318 314 328 311 210 298 43 41 35 70 116 114 113 119
148 156 172 220 263 282 274 244 270 83 124 34 232 212 156 161 116 160 232 164 43 327 278 248 180 300 25 13 334 296 340 303 328 313 309 329 58 79 47 59 104 130 141 116 15
129 140 185 257 270 277 256 237 66 72 351 180 200 188 160 174 281 206 358 23 25 356 327 307 63 148 41 350 350 347 332 333 287 271 275 108 95 107 61 64 66 120 139 235 303
145 191 177 293 265 264 248 7 92 75 278 235 246 299 90 105 229 227 127 35 359 11 337 339 303 101 49 301 178 342 313 332 327 305 321 93 80 46 35 50 35 32 336 12 346
220 224 341 267 256 232 253 110 110 94 14 331 48 147 24 47 333 19 51 84 12 351 330 358 298 245 225 39 359 341 11 336 319 329 318 323 82 47 20 37 29 30 19 27 24
246 223 332 175 223 243 166 100 314 112 110 81 52 36 26 347 353 338 52 19 10 332 11 45 312 297 22 60 356 45 7 359 335 329 3 295 78 66 28 44 23 71 27 18 14
283 65 77 227 251 192 127 128 97 119 27 62 81 39 18 35 293 27 100 38 28 26 19 4 66 301 157 168 215 58 11 360 311 261 307 338 86 66 53 69 33 8 47 43 3
279 183 118 255 326 137 175 166 124 94 84 61 93 32 228 47 8 175 130 71 73 73 47 3 306 297 345 43 340 57 17 5 6 355 339 43 16 87 6 14 63 45 39 353 2
339 50 5 82 74 4 225 191 153 144 128 18 122 22 2 259 249 135 114 147 128 128 54 352 335 321 48 41 31 48 34 32 10 16 342 354 35 25 11 10 16 17 352 1 5
4 332 174 85 144 180 51 3 93 128 327 99 22 30 30 45 1 356 330 272 128 142 62 345 86 282 150 115 30 89 93 0 25 358 348 354 37 8 31 338 18 5 7 347 11
39 13 304 156 165 245 55 24 97 113 35 57 48 138 75 33 9 8 1 13 21 331 73 332 208 267 183 91 246 36 22 6 355 355 12 353 3 355 56 74 37 54 340 353 26
Height
1535 1534 1534 1534 1534 1534 1534 1533 1534 1533 1532 1531 1530 1528 1527 1525 1525 1525 1525 1525 1525 1524 1524 1526 1525 1524 1522 1517 1514 1506 1496 1493 1495 1497 1505 1508 1513 1519 1521 1528 1533 1535 1537 1548 1552
1534 1534 1533 1534 1533 1533 1533 1533 1533 1532 1531 1530 1529 1528 1527 1525 1525 1524 1525 1525 1525 1524 1525 1525 1521 1521 1517 1513 1510 1503 1492 1504 1507 1504 1508 1509 1515 1525 1528 1538 1546 1548 1550 1553 1554
1534 1533 1533 1533 1532 1533 1533 1532 1531 1531 1530 1530 1529 1529 1527 1525 1524 1523 1524 1524 1525 1524 1524 1525 1523 1518 1511 1510 1510 1509 1506 1509 1512 1516 1519 1522 1523 1525 1531 1549 1554 1555 1556 1557 1559
1533 1533 1533 1532 1533 1532 1532 1531 1531 1530 1530 1530 1529 1528 1527 1526 1519 1524 1524 1525 1525 1524 1526 1523 1520 1513 1507 1509 1514 1515 1516 1516 1521 1523 1523 1531 1539 1548 1546 1559 1559 1559 1559 1559 1560
1534 1533 1533 1533 1532 1532 1531 1530 1530 1530 1530 1529 1529 1528 1527 1525 1524 1524 1525 1526 1526 1525 1526 1520 1514 1511 1507 1515 1515 1517 1521 1523 1526 1529 1533 1538 1546 1553 1559 1562 1562 1563 1562 1563 1564
1534 1534 1533 1533 1532 1531 1531 1530 1529 1530 1530 1529 1529 1528 1527 1524 1526 1526 1527 1527 1528 1527 1524 1522 1519 1516 1514 1514 1512 1520 1522 1524 1526 1532 1537 1542 1550 1553 1564 1565 1565 1566 1566 1566 1567
1534 1534 1534 1533 1532 1531 1530 1530 1529 1530 1529 1529 1529 1528 1527 1525 1526 1527 1528 1529 1528 1528 1525 1525 1524 1519 1518 1517 1519 1521 1520 1519 1522 1529 1538 1535 1550 1562 1565 1566 1568 1569 1569 1570 1570
1534 1534 1534 1533 1532 1531 1530 1530 1529 1530 1530 1530 1529 1527 1524 1526 1526 1526 1528 1528 1529 1528 1527 1526 1525 1520 1516 1519 1520 1515 1511 1515 1517 1523 1526 1532 1551 1560 1565 1566 1569 1571 1572 1572 1573
1534 1534 1533 1533 1532 1531 1531 1530 1530 1530 1530 1529 1529 1527 1522 1524 1524 1525 1526 1526 1527 1527 1526 1524 1524 1518 1519 1516 1515 1514 1556 1512 1515 1519 1523 1525 1547 1557 1560 1563 1568 1571 1573 1574 1575
1535 1534 1534 1533 1532 1531 1531 1531 1531 1531 1530 1529 1527 1532 1522 1521 1523 1525 1526 1526 1526 1525 1524 1524 1520 1514 1510 1506 1535 1547 1526 1510 1516 1522 1525 1534 1546 1553 1558 1562 1568 1573 1575 1576 1577
1534 1535 1534 1534 1534 1532 1532 1531 1534 1534 1530 1525 1522 1519 1519 1522 1524 1525 1525 1525 1524 1523 1513 1513 1512 1518 1504 1504 1505 1506 1509 1515 1520 1526 1527 1534 1541 1549 1555 1564 1568 1572 1575 1577 1576
1534 1535 1535 1535 1535 1534 1532 1531 1531 1532 1524 1525 1525 1523 1523 1522 1520 1522 1523 1522 1519 1511 1507 1506 1512 1510 1510 1510 1510 1508 1508 1546 1521 1523 1529 1529 1537 1548 1550 1553 1563 1571 1574 1576 1577
1534 1534 1535 1536 1536 1535 1533 1533 1531 1530 1523 1524 1523 1520 1521 1520 1517 1519 1520 1515 1510 1510 1505 1507 1512 1516 1515 1513 1514 1514 1518 1517 1521 1521 1523 1527 1534 1546 1550 1555 1564 1569 1573 1577 1578
1533 1533 1535 1536 1537 1534 1533 1532 1531 1530 1518 1524 1522 1522 1523 1520 1521 1521 1520 1516 1506 1507 1508 1512 1516 1517 1516 1517 1521 1524 1520 1518 1518 1525 1524 1518 1527 1532 1552 1563 1569 1570 1574 1577 1578
1531 1532 1533 1535 1533 1533 1533 1532 1531 1531 1536 1518 1517 1520 1519 1517 1518 1520 1520 1517 1511 1511 1514 1526 1517 1517 1518 1525 1523 1523 1522 1520 1515 1514 1515 1510 1561 1534 1557 1570 1572 1569 1576 1579 1581
1531 1531 1533 1534 1535 1533 1532 1531 1531 1527 1540 1517 1515 1517 1515 1516 1517 1518 1519 1519 1518 1515 1513 1516 1521 1523 1522 1526 1526 1525 1520 1511 1504 1511 1541 1527 1539 1556 1551 1554 1562 1574 1578 1581 1583
1530 1531 1532 1532 1533 1533 1532 1531 1525 1519 1512 1519 1515 1513 1509 1517 1519 1516 1518 1519 1523 1526 1543 1522 1520 1525 1527 1524 1520 1520 1522 1534 1523 1521 1525 1521 1520 1570 1560 1561 1564 1575 1581 1583 1583
1531 1531 1532 1533 1533 1532 1531 1526 1529 1514 1512 1512 1512 1511 1515 1519 1521 1522 1521 1520 1522 1521 1520 1522 1552 1530 1530 1531 1536 1529 1528 1536 1555 1546 1530 1502 1549 1575 1568 1571 1574 1577 1580 1583 1583
1533 1533 1534 1533 1531 1531 1529 1521 1517 1514 1517 1514 1513 1515 1517 1519 1520 1522 1524 1525 1531 1528 1535 1530 1534 1531 1534 1533 1535 1536 1534 1529 1539 1522 1518 1531 1563 1564 1570 1573 1576 1577 1581 1583 1582
1533 1533 1533 1532 1530 1530 1524 1528 1520 1524 1522 1518 1519 1517 1521 1518 1521 1519 1525 1534 1535 1535 1531 1528 1540 1530 1533 1535 1531 1535 1533 1542 1528 1546 1548 1540 1557 1570 1571 1573 1575 1578 1579 1580 1581
1534 1529 1531 1531 1531 1528 1518 1518 1523 1527 1525 1521 1522 1526 1524 1526 1524 1523 1530 1540 1541 1537 1534 1533 1534 1534 1530 1542 1547 1543 1538 1541 1539 1540 1548 1542 1568 1566 1567 1568 1573 1578 1579 1579 1583
1533 1524 1531 1531 1527 1519 1517 1523 1530 1527 1527 1529 1529 1531 1532 1534 1533 1532 1537 1545 1547 1542 1540 1543 1543 1547 1537 1544 1547 1545 1549 1547 1551 1553 1538 1539 1576 1568 1569 1573 1576 1578 1582 1583 1585
1530 1529 1531 1531 1521 1520 1527 1530 1530 1530 1531 1531 1535 1537 1537 1538 1543 1539 1542 1551 1549 1548 1551 1548 1548 1556 1546 1551 1548 1551 1550 1548 1547 1546 1555 1554 1571 1565 1572 1574 1578 1581 1583 1587 1588
1534 1525 1530 1531 1528 1522 1527 1529 1536 1537 1537 1537 1539 1538 1537 1539 1540 1544 1546 1554 1554 1555 1556 1554 1554 1555 1554 1556 1551 1554 1556 1553 1553 1553 1555 1564 1560 1572 1570 1571 1576 1581 1586 1587 1587
1537 1537 1538 1530 1532 1530 1530 1529 1533 1538 1540 1540 1540 1540 1541 1544 1541 1542 1544 1553 1555 1557 1557 1556 1556 1552 1555 1555 1554 1557 1558 1560 1560 1562 1564 1560 1567 1572 1574 1576 1580 1584 1587 1588 1589
1539 1538 1540 1541 1541 1535 1538 1534 1534 1542 1539 1542 1542 1545 1544 1548 1549 1547 1545 1545 1547 1552 1555 1558 1560 1554 1559 1558 1558 1560 1559 1559 1560 1561 1560 1562 1572 1577 1577 1581 1583 1586 1589 1589 1588
1546 1545 1544 1543 1540 1535 1540 1540 1540 1545 1548 1547 1548 1547 1551 1559 1557 1557 1556 1556 1555 1554 1556 1559 1561 1557 1580 1558 1560 1572 1565 1564 1565 1563 1569 1573 1572 1574 1577 1581 1586 1590 1591 1589 1592